Kosmos-494

operational
NORAD ID: 6059 Int'l Des: 1972-043 Owner: OKB10 Country: SU
LEOCIRCULAR

Kosmos-494について

説明を読み込み中...

リアルタイム位置

3D地球を読み込み中...

次回通過

高度履歴

Altitude vs Time

uPlot chart will show altitude changes over time

軌道要素

1 6059U 72043A 26061.03101564 .00000146 00000-0 58780-4 0 9994
2 6059 74.0533 278.5066 0009292 82.2232 277.9976 14.36501897808758
Epoch: Mar 2, 2026 • Age: 25 hours

現在のステータス

高度 796.8 km
速度 7.45 km/s
衛星直下点 -53.97°S, 59.85°W
タイプ other

大規模コンステレーション

Loading constellations...